Location: Krakow
(50.0212°N, 19.9423°E)
Time: 12:29:04
(UTC+02:00)

NOAA 18 - Pass Details

Date: 07 May 2025
Orbit: 837 x 857 km, 98.8° (Epoch: 14 May)

Event Time Altitude Azimuth Distance (km) Brightness Sun altitude
Exits shadow 20:54:29 - 102° (ESE) 2,887 7.4 -7.0°
Reaches altitude 10° 20:55:55 10° 92° (E) 2,494 7.2 -7.2°
Maximum altitude 20:59:25 18° 53° (NE) 2,015 7.0 -7.7°
Drops below altitude 10° 21:02:55 10° 13° (NNE) 2,500 8.0 -8.1°
Sets 21:06:04 0° 355° (N) 3,439 9.1 -8.5°
